FW1786 Weather Reports


Display with metric or nautical units.
time (UTC)temp
F
wind
direction
speed
MPH
gust
MPH
rain 1hr
in
rain 24hr
in
rain mn
in
humidity
%
barometer
mb
20260509113004 49 190 0.0 1.0 0.00 0.04 0.00 94 1011.0
20260509111508 49 190 0.0 1.0 0.00 0.04 0.00 94 1010.8
20260509110007 50 190 0.0 1.0 0.00 0.04 0.00 93 1010.6
20260509104510 51 190 0.0 2.0 0.00 0.04 0.00 93 1010.5
20260509103010 51 179 0.0 1.0 0.00 0.04 0.00 93 1010.3
20260509101519 51 179 0.0 1.0 0.00 0.04 0.00 93 1010.4
20260509100015 52 181 0.0 2.0 0.00 0.04 0.00 93 1010.6
20260509094511 52 166 0.0 1.0 0.00 0.04 0.00 93 1010.7
20260509093007 51 184 0.0 2.0 0.00 0.04 0.00 93 1010.9
20260509091514 52 176 0.0 1.0 0.00 0.04 0.00 92 1010.9
20260509090031 52 180 0.0 2.0 0.00 0.04 0.00 92 1011.0
20260509084520 52 187 0.0 1.0 0.00 0.04 0.00 91 1011.2
20260509083032 52 187 0.0 2.0 0.00 0.04 0.00 92 1011.3
20260509081512 53 149 0.0 1.0 0.00 0.04 0.00 91 1011.1
20260509080012 53 188 0.0 2.0 0.00 0.04 0.00 91 1011.1
20260509074520 53 182 0.0 3.0 0.00 0.04 0.00 90 1011.2
20260509073030 53 163 1.0 2.0 0.00 0.04 0.00 91 1011.0
20260509071530 53 177 0.0 1.0 0.00 0.04 0.00 90 1010.8
20260509070016 54 178 0.0 2.0 0.00 0.04 0.00 89 1011.0
20260509064518 54 187 0.0 2.0 0.00 0.04 0.00 89 1011.0
20260509063021 54 171 0.0 2.0 0.00 0.04 0.00 89 1011.0
20260509061528 54 220 0.0 2.0 0.00 0.04 0.00 89 1011.1
20260509060010 54 226 0.0 1.0 0.00 0.04 0.00 89 1011.3
20260509054517 55 236 0.0 1.0 0.00 0.04 0.00 87 1011.1
20260509053024 55 170 0.0 2.0 0.00 0.04 0.00 88 1011.2
20260509051519 55 205 0.0 1.0 0.00 0.04 0.00 87 1011.4
20260509050020 55 205 0.0 2.0 0.00 0.04 0.00 87 1011.4
20260509044519 57 231 0.0 2.0 0.00 0.04 0.04 84 1011.3
20260509043020 58 138 0.0 2.0 0.00 0.04 0.04 80 1011.2
20260509041524 59 136 0.0 2.0 0.00 0.04 0.04 79 1011.0
20260509040025 59 105 0.0 2.0 0.00 0.04 0.04 79 1010.5
20260509034518 59 142 0.0 2.0 0.00 0.04 0.04 77 1010.0
20260509033018 60 136 0.0 2.0 0.00 0.04 0.04 74 1009.5
20260509031520 61 124 1.0 3.0 0.00 0.04 0.04 71 1009.1
20260509030032 63 285 0.0 4.0 0.00 0.04 0.04 68 1008.9
20260509024519 63 179 1.0 9.0 0.01 0.04 0.04 68 1008.6
20260509023024 64 191 1.0 5.0 0.02 0.04 0.04 68 1008.7
20260509021533 62 269 2.0 10.0 0.03 0.04 0.04 71 1007.9
20260509020020 63 103 4.0 15.0 0.04 0.04 0.04 70 1006.8
20260509014518 62 178 2.0 10.0 0.03 0.03 0.03 75 1008.1
20260509013024 64 217 5.0 11.0 0.02 0.02 0.02 72 1009.3
20260509011519 65 177 2.0 10.0 0.01 0.01 0.01 73 1009.1
20260509010025 66 169 3.0 7.0 0.00 0.00 0.00 73 1009.7
20260509004526 67 193 0.0 3.0 0.00 0.00 0.00 71 1009.8
20260509003023 68 239 0.0 1.0 0.00 0.00 0.00 65 1009.0
20260509001520 69 246 0.0 1.0 0.00 0.00 0.00 64 1008.7
20260509000022 70 245 0.0 2.0 0.00 0.00 0.00 56 1008.6
20260508234524 72 209 0.0 2.0 0.00 0.00 0.00 55 1008.7
20260508233028 74 345 0.0 5.0 0.00 0.00 0.00 51 1008.8
20260508231527 75 201 1.0 4.0 0.00 0.00 0.00 46 1008.5
20260508230004 75 245 0.0 6.0 0.00 0.00 0.00 46 1008.5
20260508224512 76 205 1.0 5.0 0.00 0.00 0.00 43 1008.3
20260508223018 77 171 2.0 7.0 0.00 0.00 0.00 41 1008.4
20260508221516 77 302 1.0 6.0 0.00 0.00 0.00 41 1008.3
20260508220014 77 218 2.0 6.0 0.00 0.00 0.00 40 1008.5
20260508214510 78 331 2.0 5.0 0.00 0.00 0.00 43 1008.4
20260508213018 78 168 2.0 7.0 0.00 0.00 0.00 40 1008.5
20260508211512 78 321 2.0 7.0 0.00 0.00 0.00 39 1008.5
20260508210027 78 201 1.0 9.0 0.00 0.00 0.00 39 1008.8
20260508204520 78 165 2.0 7.0 0.00 0.00 0.00 39 1008.9
20260508203020 78 198 3.0 8.0 0.00 0.00 0.00 40 1009.3
20260508201514 77 85 1.0 3.0 0.00 0.00 0.00 43 1009.4
20260508200016 77 244 3.0 9.0 0.00 0.00 0.00 40 1009.5
20260508194525 77 244 2.0 6.0 0.00 0.00 0.00 35 1009.8
20260508193025 76 142 3.0 8.0 0.00 0.00 0.00 35 1010.1
20260508191533 76 182 2.0 7.0 0.00 0.00 0.00 37 1010.4
20260508190020 77 40 2.0 9.0 0.00 0.00 0.00 45 1010.6
20260508184522 76 333 1.0 6.0 0.00 0.00 0.00 39 1010.9
20260508183024 75 325 2.0 8.0 0.00 0.00 0.00 41 1011.1
20260508181525 75 255 2.0 6.0 0.00 0.00 0.00 41 1011.3
20260508180019 74 221 3.0 9.0 0.00 0.00 0.00 41 1011.6
20260508174519 74 274 2.0 7.0 0.00 0.00 0.00 44 1011.8
20260508173025 74 226 2.0 9.0 0.00 0.00 0.00 49 1012.2
20260508171522 72 167 2.0 9.0 0.00 0.00 0.00 46 1012.4
20260508170016 72 299 1.0 9.0 0.00 0.00 0.00 47 1012.7
20260508164516 71 215 3.0 11.0 0.00 0.00 0.00 50 1013.1
20260508163027 71 213 3.0 10.0 0.00 0.00 0.00 52 1013.2
20260508161519 70 198 2.0 10.0 0.00 0.00 0.00 56 1013.4
20260508160022 69 257 2.0 7.0 0.00 0.00 0.00 57 1013.7
20260508154520 68 139 4.0 10.0 0.00 0.00 0.00 60 1013.8
20260508153022 67 259 1.0 7.0 0.00 0.00 0.00 64 1013.9
20260508151519 66 229 2.0 5.0 0.00 0.00 0.00 65 1014.2
20260508150046 65 110 2.0 8.0 0.00 0.00 0.00 66 1014.1
20260508144523 63 171 3.0 10.0 0.00 0.00 0.00 68 1014.1
20260508143019 62 259 5.0 10.0 0.00 0.00 0.00 69 1014.0
20260508141529 60 227 2.0 7.0 0.00 0.00 0.00 76 1014.2
20260508140005 58 203 3.0 8.0 0.00 0.00 0.00 78 1014.4
20260508134506 56 167 2.0 5.0 0.00 0.00 0.00 80 1014.5
20260508133009 55 203 2.0 6.0 0.00 0.00 0.00 81 1014.9
20260508131508 51 161 0.0 4.0 0.00 0.00 0.00 89 1014.9
20260508130006 49 144 0.0 0.0 0.00 0.00 0.00 91 1014.9
20260508124506 47 196 0.0 0.0 0.00 0.00 0.00 94 1014.9
20260508123010 45 234 0.0 0.0 0.00 0.00 0.00 95 1014.9
20260508121510 44 234 0.0 1.0 0.00 0.00 0.00 94 1014.9
20260508120011 44 218 0.0 0.0 0.00 0.00 0.00 94 1014.7
20260508114508 44 263 0.0 0.0 0.00 0.00 0.00 94 1014.5